Overview Statistics Trail Chart Weather Telemetry Raw packets
 

This is the latest recevied weather packets stored in our database for station/object ZL1CTS-13. If no packets are shown the sender has not sent any weather packets the latest 10 day(s).

<< 54 55 56 57 58 59 60 >>
Time Temp. Humidity Pressure Rain* Wind** Luminosity Snow
1788378304 12.22° C 97% 1008.8 hPa 0 mm - - -
1788378303 12.22° C 97% 1008.8 hPa 0 mm - - -
1788378005 11.67° C 98% 1008.9 hPa 0 mm - - -
1788377704 11.67° C 98% 1008.7 hPa 0 mm - - -
1788377405 11.67° C 98% 1008.8 hPa 0 mm - - -
1788377404 11.67° C 98% 1008.8 hPa 0 mm - - -
1788377104 11.11° C 98% 1008.7 hPa 0 mm - - -
1788376805 11.11° C 98% 1008.6 hPa 0 mm - - -
1788376504 11.11° C 98% 1008.6 hPa 0 mm - - -
1788376504 11.11° C 98% 1008.7 hPa 0 mm - - -
1788376205 10.56° C 98% 1008.5 hPa 0 mm - - -
1788375903 10.56° C 98% 1008.5 hPa 0 mm - - -
1788375605 10.56° C 98% 1008.4 hPa 0 mm - - -
1788375603 10.56° C 98% 1008.4 hPa 0 mm - - -
1788375304 10.56° C 97% 1008.4 hPa 0 mm - - -
1788375006 11.11° C 97% 1008.3 hPa 0 mm - - -
1788374704 11.11° C 97% 1008.3 hPa 0 mm - - -
1788374703 11.11° C 97% 1008.3 hPa 0 mm - - -
1788374406 11.11° C 97% 1008.3 hPa 0 mm - - -
1788374104 11.11° C 96% 1008.4 hPa 0 mm - - -
1788373804 11.67° C 96% 1008.4 hPa 0 mm - - -
1788373803 11.67° C 96% 1008.4 hPa 0 mm - - -
1788373504 11.67° C 96% 1008.5 hPa 0 mm - - -
1788373206 11.67° C 96% 1008.4 hPa 0 mm - - -
1788372903 11.67° C 95% 1008.6 hPa 0 mm - - -

* Rain latest hour (hover to see other rain measurements)
** Current wind speed in m/s (hover to see current wind gust speed)